Miscellaneous Local Product
Issued by NWS North Platte, NE

Home | Current Version | Previous Version | Text Only | Print | Product List | Glossary On
Versions: 1 2 3 4 5 6 7 8 9 10 11 12 13 14 15 16 17 18 19 20 21 22 23 24 25 26 27 28 29 30 31 32 33 34 35 36 37 38 39 40 41 42 43 44 45 46 47 48 49 50
000
AXUS43 KLBF 051810
MISLBF


WESTERN AND NORTH CENTRAL NEBRASKA HOURLY WEATHER ROUNDUP
NATIONAL WEATHER SERVICE NORTH PLATTE NE
100 PM CDT SUN JUL 05 2015

***STATIONS NOT REPORTING VARIABLES SUCH AS SKY/WEATHER OR
PRESSURE ARE PROVIDED BY THE NEBRASKA DEPARTMENT OF
ROADS...RAWS...AND APRS NETWORKS...AND ARE NOT UNDER
NATIONAL WEATHER SERVICE QUALITY CONTROL***

...OBSERVATIONS IN AND NEAR THE EASTERN PANHANDLE OF NEBRASKA...

CITY           SKY/WX    TMP DP  RH WIND       PRES   REMARKS
PINE RIDGE     PTSUNNY   86  69  56 N7        29.83R HX  90
CHADRON        MOSUNNY   89  66  46 N9        29.82R HX  91
ALLIANCE       SUNNY     90  60  36 SW12      29.84F
SIDNEY         MOSUNNY   94  53  25 W7        29.90F HX  91
WHITECLAY        N/A     86  66  50 NW13        N/A
CRESCENT LAKE    N/A     91  62  38 S6          N/A  HX  91
BIG SPRINGS      N/A     91  62  38 W3          N/A  HX  91
$$

...OBSERVATIONS IN NORTH CENTRAL NEBRASKA...

CITY           SKY/WX    TMP DP  RH WIND       PRES   REMARKS
VALENTINE      MOSUNNY   91  67  44 S16G24    29.77F HX  94
THEDFORD       MOSUNNY   89  67  49 S14       29.83F HX  91
AINSWORTH      SUNNY     88  69  53 S17       29.81S HX  92
O`NEILL        SUNNY     83  72  68 S18G24    29.81F
ORD            SUNNY     85  69  58 SE14G24   29.81F
BROKEN BOW     SUNNY     87  69  54 S20G26    29.83F HX  91
VALENTINE NWR    N/A     87  67  51 S14         N/A  HX  90
SPRINGVIEW       N/A     89  72  56 SE7G15      N/A  HX  95
HALSEY           N/A     87  67  50 S10G18      N/A
BREWSTER         N/A     90  72  54 S15         N/A  HX  97
ROSE             N/A     95  81  64 S21         N/A  HX 116
NEWPORT          N/A     89  67  48 S16         N/A  HX  91
SARGENT          N/A     85  71  62 CALM        N/A  HX  90
CHAMBERS         N/A     85  72  65 S3G13       N/A  HX  91
EWING            N/A     81  73  76 S10G17      N/A
$$

...OBSERVATIONS IN SOUTHWEST NEBRASKA AND FAR NORTHEAST COLORADO...

CITY           SKY/WX    TMP DP  RH WIND       PRES   REMARKS
WRAY           FAIR      99  45  15 SE10      29.86S HX  95
HOLYOKE        FAIR      95  55  26 SW7       29.86F HX  93
IMPERIAL       SUNNY     94  59  31 SE9       29.84S HX  93
OGALLALA       SUNNY     89  62  40 CALM      29.84S
NORTH PLATTE   SUNNY     91  66  43 SE12      29.81F HX  93
MCCOOK         SUNNY     94  63  35 S9        29.81F HX  95
LEXINGTON      MOSUNNY   87  69  55 SE13      29.84F HX  91
PAXTON           N/A     91  69  48 SE7         N/A  HX  95
GOTHENBURG       N/A     85  65  51 S9          N/A
CALLAWAY         N/A     85  74  70 S14         N/A  HX  93
$$

...NORTH PLATTE AREA...

CITY           SKY/WX    TMP DP  RH WIND       PRES   REMARKS
AIRPORT        SUNNY     91  66  43 SE12      29.81F HX  93
DOWNTOWN         N/A     90  68  48 S6G13       N/A  HX  94
HILLCREST        N/A     89  66  46 S12G20      N/A  HX  91
$$

...SOME WEATHER OBSERVATIONS FROM AROUND THE REGION...

CITY           SKY/WX    TMP DP  RH WIND       PRES   REMARKS
DENVER         PTSUNNY   90  46  21 N6        29.99S
LARAMIE        MOSUNNY   79  48  33 VRB5      30.12F
CHEYENNE       MOSUNNY   89  49  25 SW5       30.03S
SCOTTSBLUFF    MOSUNNY   90  55  30 W7        29.86F
RAPID CITY     CLOUDY    79  63  57 NE16      29.88R
PIERRE         CLOUDY    83  69  62 E7        29.76F
WINNER         FAIR      91  65  41 SE10      29.77R HX  93
SIOUX FALLS    MOSUNNY   86  66  51 S16       29.79F
OMAHA          CLOUDY    80  69  69 S21       29.87F
GRAND ISLAND   SUNNY     85  72  65 SE18G25   29.85F HX  91
KANSAS CITY    CLOUDY    84  73  69 S14       29.96F HX  90
WICHITA        MOSUNNY   93  70  46 S14G22    29.91F HX  99
HAYS           SUNNY     99  64  32 SW24G33   29.84F HX 101
LIBERAL        SUNNY     91  64  40 S22G30    29.96S HX  93
GOODLAND       SUNNY     95  56  26 S15G22    29.87S HX  93
$$



USA.gov is the U.S. government's official web portal to all federal, state and local government web resources and services.